www.pogodaiklimat.ru

Погода и климат >> Архив погоды >> Австралия >> Rowley Shoals


ПОГОДА в Rowley Shoals

  • Прогноз погоды в Rowley Shoals
  • Монитор погоды в Rowley Shoals
  • Климат города

АРХИВ ПОГОДЫ в Rowley Shoals

Время (UTC), дата Ветер
(напр.,м/с)
 
Видим.   Явления Облачность Т
(С)
Тd
(С)
f
(%)
Тe
(С)
Тes
(С)
Комфортность P
(гПа)
Po
(гПа)
Тmin
(С)
Tmax
(С)
R
(мм)
R24
(мм)
S
(см)
16 13.08 0 н/о 1015.5 1014.6
17 13.08 0 н/о 1015.2 1014.3
18 13.08 0 н/о 1014.5 1013.6
19 13.08 0 н/о 1014.5 1013.6
20 13.08 0 н/о 1014.4 1013.5
21 13.08 0 н/о 1014.9 1014.0
22 13.08 0 н/о 1015.6 1014.7
23 13.08 0 н/о 1016.3 1015.4
00 14.08 0 н/о 1016.9 1016.0
01 14.08 0 н/о 1017.4 1016.5
02 14.08 0 н/о 1016.8 1015.9
03 14.08 0 н/о 1015.8 1014.9
04 14.08 0 н/о 1015.2 1014.3
05 14.08 0 н/о 1014.6 1013.7
06 14.08 0 н/о 1014.2 1013.3
07 14.08 0 н/о 1013.8 1012.9
08 14.08 0 н/о 1013.9 1013.0
09 14.08 0 н/о 1014.3 1013.4
10 14.08 0 н/о 1014.5 1013.6
11 14.08 0 н/о 1014.8 1013.9
12 14.08 0 н/о 1015.1 1014.2
13 14.08 0 н/о 1015.4 1014.5
14 14.08 0 н/о 1015.1 1014.2
15 14.08 0 н/о 1014.7 1013.8
16 14.08 0 н/о 1014.3 1013.4
17 14.08 0 н/о 1013.6 1012.7
18 14.08 0 н/о 1013.1 1012.2
19 14.08 0 н/о 1013.0 1012.1
20 14.08 0 н/о 1012.9 1012.0
21 14.08 0 н/о 1013.3 1012.4
22 14.08 0 н/о 1013.9 1013.0
23 14.08 0 н/о 1014.7 1013.8
00 15.08 0 н/о 1015.3 1014.4
01 15.08 0 н/о 1015.7 1014.8
02 15.08 0 н/о 1015.5 1014.6
03 15.08 0 н/о 1014.7 1013.8
04 15.08 0 н/о 1014.0 1013.1
05 15.08 0 н/о 1013.2 1012.3
06 15.08 0 н/о 1012.3 1011.4
07 15.08 0 н/о 1011.7 1010.8
08 15.08 0 н/о 1011.6 1010.7
09 15.08 0 н/о 1011.8 1010.9
10 15.08 0 н/о 1012.3 1011.4
11 15.08 0 н/о 1012.9 1012.0
12 15.08 0 н/о 1013.6 1012.7
13 15.08 0 н/о 1013.7 1012.8
14 15.08 0 н/о 1013.6 1012.7
15 15.08 0 н/о 1013.0 1012.1
16 15.08 0 н/о 1012.6 1011.7
17 15.08 0 н/о 1012.2 1011.3
18 15.08 0 н/о 1011.9 1011.0
19 15.08 0 н/о 1011.7 1010.8
20 15.08 0 н/о 1011.5 1010.6
21 15.08 0 н/о 1011.9 1011.0
22 15.08 0 н/о 1012.4 1011.5
23 15.08 0 н/о 1012.9 1012.0
00 16.08 0 н/о 1013.4 1012.5
01 16.08 0 н/о 1013.9 1013.0
02 16.08 0 н/о 1013.2 1012.3
03 16.08 0 н/о 1012.7 1011.8
04 16.08 0 н/о 1012.4 1011.5
05 16.08 0 н/о 1011.4 1010.5
06 16.08 0 н/о 1010.8 1009.9
07 16.08 0 н/о 1010.9 1010.0
08 16.08 0 н/о 1010.7 1009.8
09 16.08 0 н/о 1010.9 1010.0
10 16.08 0 н/о 1011.4 1010.5
11 16.08 0 н/о 1012.2 1011.3
12 16.08 0 н/о 1012.9 1012.0
13 16.08 0 н/о 1013.1 1012.2
14 16.08 0 н/о 1013.1 1012.2
15 16.08 0 н/о 1012.6 1011.7
16 16.08 0 н/о 1012.4 1011.5
17 16.08 0 н/о 1012.1 1011.2
18 16.08 0 н/о 1011.7 1010.8
19 16.08 0 н/о 1011.5 1010.6
20 16.08 0 н/о 1011.5 1010.6
21 16.08 0 н/о 1011.7 1010.8
22 16.08 0 н/о 1012.4 1011.5
23 16.08 0 н/о 1012.8 1011.9
00 17.08 0 н/о 1013.3 1012.4
01 17.08 0 н/о 1013.5 1012.6
02 17.08 0 н/о 1013.8 1012.9
03 17.08 0 н/о 1013.4 1012.5
04 17.08 0 н/о 1012.7 1011.8
05 17.08 0 н/о 1011.9 1011.0
06 17.08 0 н/о 1011.1 1010.2
07 17.08 0 н/о 1010.9 1010.0
08 17.08 0 н/о 1010.8 1009.9
09 17.08 0 н/о 1011.0 1010.1
10 17.08 0 н/о 1011.3 1010.4
11 17.08 0 н/о 1011.9 1011.0
12 17.08 0 н/о 1012.5 1011.6
13 17.08 0 н/о 1012.7 1011.8
14 17.08 0 н/о 1012.6 1011.7
15 17.08 0 н/о 1012.4 1011.5
16 17.08 0 н/о 1012.2 1011.3
17 17.08 0 н/о 1012.1 1011.2
18 17.08 0 н/о 1012.0 1011.1
19 17.08 0 н/о 1012.0 1011.1
20 17.08 0 н/о 1012.0 1011.1
21 17.08 0 н/о 1012.6 1011.7
22 17.08 0 н/о 1013.3 1012.4
23 17.08 0 н/о 1013.8 1012.9
00 18.08 0 н/о 1014.1 1013.2
01 18.08 0 н/о 1014.4 1013.5
02 18.08 0 н/о 1014.6 1013.7
03 18.08 0 н/о 1014.0 1013.1
04 18.08 0 н/о 1013.4 1012.5
05 18.08 0 н/о 1012.7 1011.8
06 18.08 0 н/о 1012.3 1011.4
07 18.08 0 н/о 1012.1 1011.2
08 18.08 0 н/о 1012.3 1011.4
09 18.08 0 н/о 1012.4 1011.5
10 18.08 0 н/о 1013.0 1012.1
11 18.08 0 н/о 1013.8 1012.9
12 18.08 0 н/о 1014.6 1013.7
13 18.08 0 н/о 1014.9 1014.0
14 18.08 0 н/о 1014.8 1013.9
15 18.08 0 н/о 1014.9 1014.0
16 18.08 0 н/о 1014.9 1014.0
17 18.08 0 н/о 1014.5 1013.6
18 18.08 0 н/о 1014.2 1013.3
19 18.08 0 н/о 1014.0 1013.1
20 18.08 0 н/о 1013.7 1012.8
21 18.08 0 н/о 1014.1 1013.2
22 18.08 0 н/о 1014.5 1013.6
23 18.08 0 н/о 1014.6 1013.7
00 19.08 0 н/о 1015.3 1014.4
01 19.08 0 н/о 1015.8 1014.9
02 19.08 0 н/о 1015.7 1014.8
03 19.08 0 н/о 1015.0 1014.1
04 19.08 0 н/о 1014.4 1013.5
05 19.08 0 н/о 1013.8 1012.9
06 19.08 0 н/о 1013.0 1012.1
07 19.08 0 н/о 1012.9 1012.0
08 19.08 0 н/о 1013.2 1012.3
09 19.08 0 н/о 1013.5 1012.6
10 19.08 0 н/о 1013.7 1012.8
11 19.08 0 н/о 1014.5 1013.6
12 19.08 0 н/о 1015.0 1014.1
13 19.08 0 н/о 1015.2 1014.3
14 19.08 0 н/о 1015.5 1014.6
15 19.08 0 н/о 1015.3 1014.4
16 19.08 0 н/о 1015.0 1014.1
17 19.08 0 н/о 1014.6 1013.7
18 19.08 0 н/о 1014.4 1013.5
19 19.08 0 н/о 1014.4 1013.5
20 19.08 0 н/о 1014.0 1013.1
21 19.08 0 н/о 1014.2 1013.3
22 19.08 0 н/о 1014.6 1013.7
23 19.08 0 н/о 1014.9 1014.0
00 20.08 0 н/о 1015.6 1014.7
01 20.08 0 н/о 1016.0 1015.1
02 20.08 0 н/о 1015.8 1014.9
03 20.08 0 н/о 1015.2 1014.3
04 20.08 0 н/о 1014.2 1013.3
05 20.08 0 н/о 1013.4 1012.5
06 20.08 0 н/о 1012.7 1011.8
07 20.08 0 н/о 1012.5 1011.6
08 20.08 0 н/о 1012.7 1011.8
09 20.08 0 н/о 1012.8 1011.9
10 20.08 0 н/о 1012.9 1012.0
11 20.08 0 н/о 1013.1 1012.2
12 20.08 0 н/о 1013.5 1012.6
13 20.08 0 н/о 1013.7 1012.8
14 20.08 0 н/о 1013.8 1012.9

 

Местоположение метеостанции Rowley Shoals (Западная Австралия, Австралия): широта -17.53 долгота 118.95 высота над уровнем моря 8 м.

В архиве по умолчанию представлена погода в Rowley Shoals за последнюю неделю. Архивные данные за месяц целиком и за предыдущие месяцы, начиная с января 2011 года, Вы можете получить, выбрав интересующий диапазон дат из раскрывающегося списка и нажав кнопку "Ввод!".

Внимание! Время в таблицах - всемирное. Для получения местного времени необходимо прибавить поправку, которая в Rowley Shoals равна 8 ч.

Смотрите также архив погоды в соседних городах и на ближайших метеорологических станциях:

Погода в Mandora (Западная Австралия, Австралия) (316 км)
Погода в Port Hedland Apardoo (Западная Австралия, Австралия) (317 км)
Погода в Broome Airport (Западная Австралия, Австралия) (351 км)
Погода в West Roebuck (Западная Австралия, Австралия) (359 км)
Погода в Roebourne Aero (Западная Австралия, Австралия) (405 км)
Погода в Marble Bar (Западная Австралия, Австралия) (415 км)
Погода в Karratha Aero (Западная Австралия, Австралия) (422 км)
Погода в Varanus Island (Западная Австралия, Австралия) (497 км)
Погода в Derby Aero (Северная территория, Австралия) (500 км)
Погода в Adele Island (Западная Австралия, Австралия) (501 км)

Пояснения к столбцам:

Ветер - указаны скорость ветра в м/с - средняя за 10 мин, порывы в срок и между сроками (в фигурных скобках) и направление, откуда дует ветер: С - северный, СВ - северо-восточный, В - восточный, ЮВ - юго-восточный, Ю - южный, ЮЗ - юго-западный, З - западный, СЗ - северо-западный.
Видимость - горизонтальная дальность видимости в метрах или километрах. При видимости от 1 до 10 км при отсутствии осадков обычно наблюдается дымка, при ухудшении видимости до 1 км и менее - туман. В сухую погоду видимость может ухудшаться дымом, пылью или мглою.
Явления - указаны атмосферные явления, наблюдавшиеся в срок или в последний час перед сроком; фигурными скобками обозначены явления, наблюдавшиеся между сроками (за 1-3 часа до срока); квадратными скобками обозначены град или гололедные отложения с указанием их диаметра в мм.
Облачность - указаны через наклонную черту общая и нижняя облачность в баллах и высота нижней границы облаков в метрах; квадратными скобками обозначены формы облаков: Ci - перистые, Cs - перисто-слоистые, Cc - перисто-кучевые, Ac - высококучевые, As - высокослоистые, Sc - слоисто-кучевые, Ns - слоисто-дождевые, Cu - кучевые, Cb - кучево-дождевые. Подробнее классификацию облаков см. в Атласе облаков (PDF).
T - Температура воздуха - температура, измеренная на высоте 2 м над землей.
Td - Температура точки росы - температура, при понижении до которой содержащийся в воздухе водяной пар достигнет насыщения.
f - Относительная влажность воздуха - влажноcть воздуха, измеренная на высоте 2 м над землей.
Te - Эффективная температура - температура, которую ощущает одетый по сезону человек в тени. Характеристика душности погоды. При расчете учитывается влияние влажности воздуха и скорости ветра на теплоощущения человека.
Tes - Эффективная температура на солнце - температура, которую ощущает человек, с поправкой на солнечный нагрев. Характеристика знойности погоды. Зависит от высоты солнца над горизонтом, облачности и скорости ветра. Ночью, в пасмурную погоду, а также при ветре 12 м/с и более поправка равна нулю.
P - Атмосферное давление - приведенное к уровню моря атмосферное давление.
Po - Атмосферное давление - измеренное на уровне метеостанции атмосферное давление.
Tmin - Минимальная температура - минимум температуры воздуха на высоте 2 м над землей.
Tmax - Максимальная температура - максимум температуры воздуха на высоте 2 м над землей.
R - Количество осадков - Количество выпавших осадков за период времени, мм. При наведении курсора мыши на число - период времени, за который выпало указанное количество осадков.
R24 - Количество осадков - Количество выпавших осадков за 24 часа, мм.
S - Снежный покров - Высота снежного покрова, см. При наведении курсора мыши на число - состояние снежного покрова и степень покрытия местности в баллах.